Montreal/Mirabel, Ontario

11:48 PM EST on February 21, 2017 (GMT -0500)
Montreal International (Mirabel)

Weather History for CYMX - December, 2011

Change the Weather History Date:

Monday, December 12, 2011

  Actual Average Record
Temperature  
Mean Temperature 30 °F -  
Max Temperature 37 °F 28 °F 48 °F (2015)
Min Temperature 23 °F 15 °F -11 °F (2013)
Degree Days  
Heating Degree Days 35    
Moisture  
Dew Point 22 °F    
Average Humidity 75    
Maximum Humidity 100    
Minimum Humidity 60    
Precipitation  
Precipitation 0.00 in - - ()
Sea Level Pressure  
Sea Level Pressure 30.42 in    
Wind  
Wind Speed 5 mph ()    
Max Wind Speed 12 mph    
Max Gust Speed -    
Averages and records for this station are not official NWS values.
T = Trace of Precipitation, MM = Missing Value Source: Averaged Metar Reports

Daily Weather History Graph

Daily Weather History Graph

Search for Another Location

Airport or City:

Trip Planner

Search our weather history database for the weather conditions in past years. The results will help you decide how hot, cold, wet, or windy it might be!

Date:

Astronomy

Dec. 12, 2011 Rise Set
Actual Time 7:27 AM EST 4:12 PM EST
Civil Twilight 6:53 AM EST 4:46 PM EST
Nautical Twilight 6:15 AM EST 5:23 PM EST
Astronomical Twilight 5:39 AM EST 6:00 PM EST
Moon 6:22 PM EST (12/12) 8:55 AM EST (12/12)
Length of Visible Light 9h 53m
Length of Day
8h 44m
Waning Gibbous, 96% of the Moon is Illuminated
Dec 12
Waning Gibbous
Dec 17
Last Quarter
Dec 24
New
Jan 1
First Quarter
Jan 9
Full

Hourly Weather History & Observations

Time (EST) Temp. Windchill Dew Point Humidity Pressure Visibility Wind Dir Wind Speed Gust Speed Precip Events Conditions
12:00 AM 28.4 °F 20.4 °F 19.4 °F 69% 30.38 in 25.0 mi SW 8.1 mph - N/A   Clear
1:00 AM 28.4 °F 20.4 °F 19.4 °F 69% 30.38 in 25.0 mi SW 8.1 mph - N/A   Clear
2:00 AM 26.6 °F 20.0 °F 19.4 °F 74% 30.40 in 25.0 mi SW 5.8 mph - N/A   Clear
3:00 AM 23.0 °F 18.4 °F 17.6 °F 80% 30.42 in 25.0 mi West 3.5 mph - N/A   Clear
4:00 AM 28.4 °F 20.4 °F 19.4 °F 69% 30.42 in 25.0 mi SW 8.1 mph - N/A   Clear
5:00 AM 28.4 °F 18.5 °F 21.2 °F 74% 30.42 in 25.0 mi SW 11.5 mph - N/A   Clear
6:00 AM 30.2 °F 22.6 °F 21.2 °F 69% 30.44 in 25.0 mi SW 8.1 mph - N/A   Clear
7:00 AM 30.2 °F 21.9 °F 19.4 °F 64% 30.44 in 25.0 mi WSW 9.2 mph - N/A   Partly Cloudy
8:00 AM 30.2 °F 21.9 °F 19.4 °F 64% 30.45 in 25.0 mi WSW 9.2 mph - N/A   Partly Cloudy
9:00 AM 30.2 °F 25.4 °F 19.4 °F 64% 30.45 in 25.0 mi WSW 4.6 mph - N/A   Partly Cloudy
10:00 AM 30.2 °F 23.4 °F 21.2 °F 69% 30.45 in 25.0 mi WSW 6.9 mph - N/A   Clear
11:00 AM 33.8 °F 29.6 °F 21.2 °F 60% 30.44 in 25.0 mi WSW 4.6 mph - N/A   Clear
12:00 PM 35.6 °F 29.9 °F 23.0 °F 60% 30.43 in 25.0 mi WSW 6.9 mph - N/A   Clear
1:00 PM 37.4 °F 30.8 °F 26.6 °F 65% 30.41 in 25.0 mi WSW 9.2 mph - N/A   Clear
2:00 PM 37.4 °F 32.8 °F 26.6 °F 65% 30.41 in 25.0 mi WSW 5.8 mph - N/A   Clear
3:00 PM 37.4 °F 32.8 °F 26.6 °F 65% 30.41 in 25.0 mi West 5.8 mph - N/A   Clear
4:00 PM 35.6 °F - 26.6 °F 70% 30.41 in 25.0 mi WSW 2.3 mph - N/A   Clear
5:00 PM 28.4 °F 23.3 °F 24.8 °F 86% 30.42 in 25.0 mi South 4.6 mph - N/A   Clear
6:00 PM 28.4 °F 24.6 °F 24.8 °F 86% 30.42 in 25.0 mi South 3.5 mph - N/A   Clear
7:00 PM 26.6 °F - 24.8 °F 93% 30.43 in 25.0 mi Calm Calm - N/A   Clear
8:00 PM 24.8 °F - 23.0 °F 93% 30.43 in 25.0 mi Calm Calm - N/A   Clear
9:00 PM 24.8 °F - 23.0 °F 93% 30.42 in 25.0 mi NW 2.3 mph - N/A   Clear
10:00 PM 24.8 °F - 23.0 °F 93% 30.42 in 25.0 mi Calm Calm - N/A   Clear
11:00 PM 23.0 °F - 23.0 °F 100% 30.42 in 25.0 mi Calm Calm - N/A   Partly Cloudy